User: anonymous   Login
Location: Blanot
(47.1713°N, 4.2340°E)
Time: 01:07:42
(UTC+00:00)
Language:

Meteor 1-25 Rocket - Orbit

View from above orbital plane
View from above orbital plane
View from above satellite
View from above satellite

Ground track
Ground track

The orbit data is extracted from the following two-line orbital elements,

1  8846U 76043B   20272.38398739 -.00000028 +00000-0 -23332-4 0  9998
2  8846 081.2274 224.9607 0038250 229.3537 130.4306 14.08608880279627
Epoch (UTC): 28 September 2020 09:12:56
Eccentricity: 0.0038250
inclination: 81.2274°
perigee height: 836 km
apogee height: 892 km
right ascension of ascending node: 224.9607°
argument of perigee: 229.3537°
revolutions per day: 14.08608880
mean anomaly at epoch: 130.4306°
orbit number at epoch: 27962

The dashed part of the orbit path shows where the satellite is in the earth's shadow,  

DLR